Temp
72 74 76 79 74 74 68 71 73 75 78 81 82 81 80 79 77 74 82 84 83 81 80 79 74 75 75 75 75 75 76 76 76 76 76 76 76 75 75 75 76 77 78 78 78 78 78 77 75
78 78 78 73 71 69 70 73 74 78 80 81 82 82 81 77 82 80 82 82 84 82 81 80 73 74 75 75 75 75 76 76 76 76 76 75 75 75 75 75 75 77 78 78 78 78 77 75 74
79 78 77 69 65 67 70 74 77 80 83 81 80 83 81 79 83 84 84 82 82 82 82 80 73 74 74 74 75 75 75 75 75 75 76 75 75 75 75 75 75 77 78 78 78 77 75 74 73
80 79 72 70 67 70 71 77 78 79 82 83 82 78 82 85 84 85 83 82 81 81 82 75 72 73 74 74 74 74 74 74 74 74 75 75 76 75 75 74 75 77 77 77 77 75 74 72 72
76 75 68 65 65 69 73 77 77 79 81 81 81 77 80 84 81 80 81 81 81 80 81 79 72 73 74 75 74 74 74 73 74 74 74 75 75 75 74 74 75 76 76 76 75 74 73 72 72
76 72 69 68 65 70 74 76 76 80 81 80 80 79 80 83 82 79 81 80 81 79 79 79 74 73 73 74 73 73 73 73 73 73 74 74 74 74 74 74 74 74 74 73 73 72 72 72 72
72 70 66 64 65 68 75 77 78 79 80 80 82 79 81 83 81 79 79 78 78 79 78 78 78 76 71 71 71 71 72 72 73 72 73 73 72 72 73 73 73 73 73 73 72 72 72 72 71
72 71 63 64 66 68 75 78 79 80 79 82 84 79 81 84 79 78 78 77 76 76 77 77 76 77 78 78 70 71 71 71 72 72 72 71 72 72 73 72 73 73 72 72 72 71 71 71 70
72 67 64 66 64 70 75 76 80 81 80 81 84 82 82 78 78 77 76 75 74 75 76 76 76 76 76 78 77 72 71 71 71 72 71 71 81 79 77 74 71 72 71 71 71 71 70 70 70
72 66 67 69 69 71 72 74 77 77 77 79 81 79 76 77 78 79 78 77 74 74 71 76 76 76 75 78 78 78 79 79 79 79 78 80 78 79 79 75 70 70 70 70 70 70 69 70 80
65 67 67 71 71 72 72 73 76 74 74 80 80 82 78 76 77 79 81 81 79 78 75 76 76 75 75 77 78 76 78 79 78 78 78 78 77 77 79 78 77 78 72 79 76 75 79 78 79
65 67 68 72 70 71 72 75 74 75 79 84 83 83 79 77 78 79 81 82 78 76 77 77 78 76 76 77 76 76 75 76 77 78 77 77 77 76 77 78 76 75 78 77 77 79 76 76 77
65 67 68 70 70 70 70 72 71 74 80 81 80 77 79 80 81 82 82 83 81 77 78 76 76 76 76 74 74 76 76 76 77 76 76 77 77 75 77 74 76 73 72 77 76 76 76 75 75
66 66 67 68 71 70 70 72 71 78 78 79 77 79 79 78 80 81 78 79 78 78 79 77 75 76 77 73 73 75 77 76 77 77 75 74 78 77 77 74 74 71 70 74 77 76 73 74 72
66 63 66 67 68 68 69 66 66 79 76 76 78 78 78 78 80 79 82 80 80 81 80 76 75 75 74 75 74 76 75 74 76 78 75 74 75 75 76 75 71 72 71 73 74 73 73 73 72
62 61 59 67 66 68 71 65 74 77 74 76 77 78 77 80 81 83 80 80 83 83 80 78 77 74 74 75 74 77 77 76 78 78 77 73 72 73 74 74 75 74 69 72 74 73 72 69 69
57 56 54 61 67 67 67 64 72 72 71 72 77 78 77 78 82 81 79 81 83 83 81 78 76 74 73 74 74 75 76 77 78 78 76 73 71 72 74 75 74 74 70 69 72 69 70 70 65
53 54 54 55 64 64 63 62 68 69 69 70 75 76 76 77 81 84 79 79 78 78 78 79 76 75 73 73 72 73 74 76 77 74 73 72 71 70 72 73 73 73 73 68 69 68 69 68 70
57 55 55 58 63 62 62 62 65 70 71 71 72 74 74 76 82 79 76 73 72 73 73 76 74 73 73 70 68 67 67 69 71 71 71 70 70 69 71 72 71 72 72 70 68 68 66 60 62
56 54 54 59 62 58 59 58 64 68 70 73 73 76 75 77 76 76 74 70 69 69 70 75 74 71 73 73 72 72 70 68 68 67 69 71 72 71 71 71 70 70 70 70 67 65 61 60 61
54 53 52 55 59 61 57 59 60 66 68 71 72 73 75 73 74 74 70 66 65 65 68 73 72 70 72 72 67 66 67 66 64 66 66 68 71 72 72 72 71 69 68 68 67 66 63 58 59
49 57 57 54 53 49 57 50 59 65 69 71 74 73 74 73 71 69 66 64 64 65 68 71 70 70 70 67 68 66 68 66 66 66 63 63 65 66 67 68 68 68 67 67 67 65 64 61 57
53 57 56 54 51 49 53 52 61 60 61 68 73 74 73 70 70 68 65 62 64 65 66 67 68 68 66 68 68 67 67 69 65 63 63 60 59 59 59 61 62 62 62 63 63 60 61 61 59
60 56 54 51 51 43 52 54 60 63 65 66 72 72 71 68 67 66 64 62 63 64 64 65 65 64 67 69 70 69 65 62 62 61 61 59 58 58 59 58 59 60 60 59 60 60 60 60 60
59 53 43 41 41 43 56 50 58 64 66 68 70 74 71 67 66 66 66 64 63 63 63 63 64 63 65 66 67 68 67 64 65 62 61 58 58 57 58 57 56 58 61 58 59 59 59 59 59
54 54 45 39 40 49 50 46 59 67 71 70 70 71 68 65 65 66 67 65 62 61 63 63 63 62 63 64 64 66 67 66 66 65 62 61 62 61 59 57 56 59 60 60 61 61 61 59 58
50 47 59 49 46 45 54 58 61 61 64 64 66 66 66 64 65 66 66 65 63 60 61 61 61 59 59 59 60 60 61 61 60 59 58 58 58 57 58 57 56 56 58 57 59 56 57 57 55
58 60 47 46 39 38 49 48 53 56 60 66 65 63 62 64 65 65 65 64 63 61 59 59 60 59 57 56 58 58 59 58 56 56 56 55 55 55 56 55 55 55 53 53 53 54 54 53 52
52 50 50 51 46 43 42 51 58 61 63 65 67 63 63 64 65 66 65 64 62 61 60 57 57 57 57 57 57 56 57 56 56 56 55 55 55 55 54 54 53 51 50 50 51 52 51 50 49
59 55 52 45 42 45 48 51 59 62 63 63 64 62 64 65 64 65 64 62 62 60 60 57 56 56 56 56 57 57 57 57 57 57 55 54 55 55 54 54 53 51 50 50 49 48 48 49 48
MSLP
1012.81 1012.86 1012.81 1012.40 1012.20 1010.95 1010.42 1010.25 1009.90 1009.23 1008.92 1008.82 1008.95 1009.03 1009.24 1009.57 1009.69 1010.56 1010.86 1011.24 1011.78 1012.54 1013.28 1014.01 1014.40 1014.55 1014.65 1014.87 1015.20 1015.59 1015.94 1016.30 1016.61 1016.85 1017.10 1017.45 1017.66 1017.94 1018.43 1018.42 1018.42 1018.43 1018.74 1019.21 1019.45 1019.82 1020.14 1020.26 1020.44
1012.62 1012.58 1012.48 1012.15 1011.45 1010.45 1010.26 1009.81 1009.39 1009.02 1008.93 1009.02 1008.99 1009.14 1009.29 1009.67 1010.06 1010.52 1010.93 1011.59 1011.97 1012.58 1013.41 1013.99 1014.43 1014.54 1014.82 1014.99 1015.26 1015.62 1016.03 1016.43 1016.78 1017.09 1017.41 1017.66 1018.01 1018.27 1018.60 1018.72 1018.65 1018.64 1018.85 1019.21 1019.50 1019.84 1020.28 1020.68 1020.85
1012.42 1012.42 1012.21 1012.05 1011.59 1010.55 1009.92 1009.50 1009.13 1008.95 1008.81 1008.81 1009.00 1009.30 1009.48 1009.76 1010.18 1010.34 1010.71 1011.52 1012.08 1012.70 1013.32 1013.83 1014.43 1014.70 1014.88 1015.24 1015.48 1015.68 1016.14 1016.53 1016.90 1017.30 1017.68 1017.89 1018.29 1018.59 1018.70 1018.98 1018.90 1018.88 1019.03 1019.34 1019.73 1020.13 1020.39 1020.75 1021.08
1012.36 1012.46 1012.99 1012.10 1011.27 1010.69 1010.19 1009.61 1009.26 1008.94 1008.78 1008.83 1008.91 1009.28 1009.75 1010.02 1010.30 1010.55 1010.97 1011.63 1012.15 1012.77 1013.19 1013.94 1014.41 1014.69 1014.91 1015.20 1015.56 1015.77 1016.13 1016.57 1017.06 1017.42 1017.77 1018.07 1018.42 1018.76 1018.99 1019.11 1019.15 1019.13 1019.22 1019.56 1019.91 1020.34 1020.63 1020.70 1020.89
1012.75 1012.62 1012.32 1011.99 1011.43 1010.85 1010.42 1009.89 1009.44 1008.80 1008.74 1008.88 1008.99 1009.40 1009.67 1010.17 1010.80 1011.17 1011.39 1011.67 1012.03 1012.77 1013.19 1013.90 1014.41 1014.66 1014.93 1015.25 1015.56 1015.85 1016.13 1016.58 1017.02 1017.45 1017.79 1018.14 1018.51 1018.82 1019.16 1019.28 1019.51 1019.65 1019.72 1019.97 1020.16 1020.45 1020.62 1020.92 1021.06
1012.58 1012.90 1012.21 1011.75 1011.50 1010.98 1010.49 1010.05 1009.58 1009.00 1008.80 1008.89 1008.95 1009.29 1009.88 1010.52 1010.77 1011.42 1011.91 1012.10 1012.27 1012.66 1013.27 1013.86 1014.45 1014.71 1014.91 1015.24 1015.62 1016.02 1016.34 1016.50 1016.86 1017.33 1017.82 1018.25 1018.62 1018.96 1019.26 1019.51 1019.69 1019.96 1020.07 1020.20 1020.47 1020.74 1021.01 1021.04 1021.16
1012.47 1012.62 1012.40 1012.02 1011.59 1011.02 1010.45 1010.09 1009.61 1009.34 1009.16 1009.07 1009.11 1009.22 1009.95 1010.26 1010.89 1011.50 1011.99 1012.40 1012.68 1012.88 1013.38 1013.76 1014.31 1014.78 1015.07 1015.29 1015.63 1016.03 1016.37 1016.66 1016.93 1017.26 1017.74 1018.27 1018.67 1019.08 1019.43 1019.62 1019.86 1020.12 1020.36 1020.55 1020.78 1021.02 1021.17 1021.40 1021.46
1012.71 1012.69 1012.53 1012.12 1011.62 1011.08 1010.62 1010.13 1009.91 1009.51 1009.45 1009.43 1009.39 1009.32 1009.65 1009.95 1010.97 1011.65 1012.19 1012.56 1012.87 1013.20 1013.41 1013.71 1014.33 1014.69 1015.01 1015.40 1015.60 1015.83 1016.28 1016.70 1017.04 1017.43 1017.86 1018.42 1018.80 1019.14 1019.38 1019.75 1020.02 1020.36 1020.56 1020.77 1020.92 1021.02 1021.20 1021.37 1021.42
1012.84 1012.77 1012.42 1011.88 1011.79 1011.19 1010.98 1010.44 1010.09 1009.87 1009.58 1009.42 1009.32 1009.64 1010.00 1010.55 1011.25 1011.67 1012.12 1012.52 1012.90 1013.23 1013.42 1013.59 1014.04 1014.54 1014.96 1015.30 1015.62 1015.92 1016.28 1016.78 1017.26 1017.63 1018.02 1018.52 1018.72 1019.19 1019.56 1019.75 1020.08 1020.37 1020.72 1020.84 1020.98 1021.14 1021.25 1021.45 1021.56
1012.57 1012.74 1012.11 1011.92 1011.74 1011.47 1011.24 1010.91 1010.23 1010.04 1009.90 1009.47 1009.50 1010.03 1010.45 1010.85 1011.08 1011.16 1011.37 1011.68 1012.28 1012.59 1013.22 1013.39 1013.67 1014.12 1014.70 1014.95 1015.43 1015.86 1016.35 1016.71 1017.08 1017.44 1017.86 1018.04 1018.58 1018.99 1019.35 1019.84 1020.23 1020.36 1020.57 1020.92 1021.12 1021.26 1021.42 1021.57 1021.41
1012.81 1012.39 1012.24 1011.84 1011.85 1011.74 1011.30 1010.96 1010.49 1010.34 1009.97 1009.48 1009.56 1009.73 1010.30 1010.77 1010.80 1010.79 1010.71 1010.88 1011.21 1011.91 1012.62 1012.94 1013.29 1013.77 1014.11 1014.36 1014.99 1015.58 1015.90 1016.34 1016.75 1017.11 1017.53 1017.95 1018.34 1018.78 1019.11 1019.39 1019.85 1020.14 1020.48 1020.51 1020.92 1021.25 1021.20 1021.15 1021.19
1012.85 1012.47 1012.36 1011.97 1011.98 1011.73 1011.21 1010.80 1010.42 1010.23 1009.11 1009.13 1009.47 1009.63 1009.94 1010.18 1010.10 1009.96 1010.00 1010.14 1010.87 1011.26 1011.65 1012.39 1012.80 1013.23 1013.49 1014.15 1014.53 1014.96 1015.47 1015.98 1016.29 1016.79 1017.31 1017.65 1017.98 1018.39 1018.64 1018.94 1019.50 1019.81 1020.02 1020.24 1020.63 1020.83 1021.30 1021.37 1021.28
1012.92 1012.60 1012.51 1012.27 1012.01 1011.69 1011.50 1010.80 1010.76 1009.72 1009.29 1009.21 1009.25 1009.57 1009.59 1009.49 1009.27 1009.42 1009.52 1009.76 1010.39 1010.65 1010.98 1011.63 1012.25 1012.71 1013.14 1013.79 1014.14 1014.42 1014.75 1015.27 1015.61 1016.34 1016.87 1017.21 1017.57 1018.00 1018.28 1018.91 1019.24 1019.96 1020.23 1020.18 1020.25 1020.57 1020.92 1021.26 1021.41
1012.97 1012.76 1012.52 1012.29 1011.65 1011.47 1011.22 1010.76 1010.69 1008.79 1008.93 1008.77 1009.07 1008.88 1009.12 1009.03 1008.77 1008.90 1009.11 1009.16 1009.65 1010.06 1010.47 1011.28 1011.78 1012.18 1012.64 1013.26 1013.66 1014.00 1014.46 1014.86 1015.35 1015.73 1016.39 1016.99 1017.25 1017.62 1018.11 1018.79 1019.32 1019.78 1020.26 1020.22 1020.31 1020.23 1020.64 1020.87 1021.30
1013.00 1012.80 1012.08 1011.60 1011.48 1011.29 1010.96 1010.62 1009.81 1008.28 1008.89 1008.68 1008.60 1008.64 1008.89 1008.80 1008.61 1008.31 1008.03 1008.44 1008.68 1008.93 1009.76 1010.29 1010.95 1011.61 1012.12 1012.66 1013.23 1013.56 1014.10 1014.82 1014.92 1015.22 1015.89 1016.70 1017.18 1017.58 1017.97 1018.53 1019.19 1019.48 1019.95 1020.07 1020.18 1020.62 1020.72 1020.93 1021.26
1013.02 1012.99 1012.33 1011.44 1011.44 1011.18 1010.90 1009.59 1008.82 1008.61 1008.94 1008.70 1008.50 1008.37 1008.43 1008.33 1008.18 1008.10 1007.91 1007.92 1007.86 1008.21 1008.46 1009.29 1010.03 1010.80 1011.56 1012.10 1012.77 1013.04 1013.59 1014.22 1014.60 1014.84 1015.49 1016.17 1016.77 1017.15 1017.60 1017.97 1018.27 1018.73 1019.37 1019.62 1019.70 1020.07 1020.53 1020.83 1021.04
1013.41 1012.83 1012.48 1011.79 1011.21 1011.17 1010.97 1009.62 1008.86 1008.98 1008.96 1008.59 1008.14 1007.96 1007.75 1007.44 1007.32 1007.61 1007.65 1007.57 1007.47 1007.64 1007.88 1008.40 1009.14 1009.81 1010.83 1011.58 1012.33 1012.70 1013.09 1013.46 1014.05 1014.38 1015.05 1015.93 1016.48 1016.82 1017.09 1017.36 1017.77 1018.40 1019.06 1019.41 1019.60 1020.04 1020.42 1020.67 1021.19
1012.96 1013.02 1012.65 1012.02 1011.45 1011.23 1010.90 1010.07 1009.17 1009.11 1008.96 1008.18 1007.61 1007.38 1007.39 1007.19 1006.27 1006.42 1007.20 1007.40 1007.59 1007.57 1007.64 1007.80 1008.48 1009.09 1010.19 1011.15 1012.02 1012.58 1013.02 1013.22 1013.58 1014.06 1014.61 1015.29 1015.94 1016.52 1016.79 1017.12 1017.50 1017.98 1018.40 1018.95 1019.23 1019.62 1020.09 1020.36 1020.67
1012.91 1013.01 1012.64 1011.71 1011.42 1011.39 1010.54 1009.90 1009.08 1008.75 1008.57 1007.74 1007.34 1006.82 1006.77 1006.38 1005.87 1006.37 1006.58 1007.31 1007.34 1007.24 1007.16 1007.45 1008.05 1008.63 1009.54 1010.38 1011.16 1012.07 1012.40 1013.19 1013.59 1013.88 1014.38 1015.09 1015.49 1016.09 1016.32 1016.59 1017.02 1017.44 1017.81 1018.33 1018.75 1019.06 1019.55 1020.32 1020.84
1013.16 1013.19 1012.90 1012.00 1011.25 1011.35 1010.19 1009.42 1008.80 1008.44 1007.13 1006.91 1006.29 1006.05 1006.04 1005.83 1006.15 1006.22 1006.60 1007.05 1007.15 1007.07 1006.90 1007.01 1007.63 1008.48 1009.28 1010.06 1010.85 1011.65 1012.26 1012.95 1013.51 1014.00 1014.33 1014.51 1014.87 1015.34 1015.70 1016.00 1016.55 1016.97 1017.40 1017.86 1018.29 1018.91 1019.60 1020.22 1020.50
1012.96 1012.98 1012.84 1012.68 1011.71 1010.94 1010.37 1008.00 1007.52 1006.90 1006.51 1006.07 1005.55 1005.57 1005.51 1005.85 1006.03 1006.21 1006.74 1007.29 1007.46 1007.22 1006.76 1006.80 1007.34 1008.36 1009.09 1009.84 1010.81 1011.65 1012.45 1013.14 1013.63 1013.79 1014.05 1014.22 1014.49 1014.77 1015.21 1015.64 1015.96 1016.40 1016.81 1017.11 1017.69 1018.32 1018.78 1019.43 1019.88
1012.65 1012.43 1012.67 1012.76 1012.88 1011.54 1010.79 1007.69 1006.73 1006.30 1005.52 1005.22 1004.71 1004.87 1004.91 1005.47 1006.10 1006.72 1007.11 1007.53 1007.60 1007.34 1007.02 1007.08 1007.51 1008.17 1009.00 1009.77 1010.50 1011.09 1011.61 1012.36 1012.87 1013.21 1013.85 1014.33 1014.45 1014.66 1015.04 1015.30 1015.58 1015.96 1016.41 1016.69 1016.89 1017.36 1017.75 1018.44 1019.11
1011.87 1012.02 1012.37 1012.72 1012.61 1011.98 1010.62 1009.45 1005.64 1005.76 1005.18 1004.14 1003.68 1003.78 1004.58 1005.31 1006.14 1006.76 1007.30 1007.60 1007.87 1007.80 1007.56 1007.57 1007.81 1008.31 1009.01 1009.70 1010.33 1010.80 1011.55 1012.13 1012.64 1013.13 1013.73 1014.34 1014.68 1014.86 1015.18 1015.49 1015.69 1016.08 1016.22 1016.46 1016.83 1017.10 1017.44 1017.81 1018.27
1011.41 1012.13 1012.61 1012.89 1012.57 1011.08 1009.58 1008.89 1003.36 1004.51 1004.12 1003.60 1003.30 1003.84 1004.55 1005.28 1006.19 1006.91 1007.57 1007.66 1008.06 1008.24 1008.13 1007.99 1008.14 1008.73 1009.27 1009.63 1010.05 1010.50 1011.26 1012.09 1012.53 1013.15 1013.58 1014.24 1014.77 1014.92 1015.13 1015.50 1015.66 1015.97 1016.14 1016.31 1016.50 1016.80 1017.13 1017.38 1017.52
1010.70 1011.31 1012.29 1012.58 1012.18 1009.05 1008.16 1007.77 1003.72 1004.02 1003.71 1003.27 1003.13 1003.53 1004.22 1005.30 1006.21 1006.78 1007.26 1007.81 1008.14 1008.62 1008.62 1008.58 1008.63 1009.08 1009.39 1009.85 1010.20 1010.61 1011.10 1011.69 1012.05 1012.89 1013.55 1014.20 1014.55 1015.02 1015.21 1015.50 1015.72 1015.71 1015.77 1016.29 1016.45 1016.63 1016.68 1016.73 1017.06
1009.62 1009.76 1009.77 1009.89 1010.04 1008.44 1008.19 1005.57 1003.42 1002.90 1002.86 1003.10 1003.10 1003.60 1004.40 1005.20 1006.12 1006.77 1007.09 1007.69 1008.31 1008.71 1009.05 1009.19 1009.34 1009.71 1010.05 1010.48 1010.85 1011.05 1011.24 1011.58 1012.09 1012.44 1012.98 1013.84 1014.54 1015.03 1015.29 1015.26 1015.48 1015.39 1015.62 1015.46 1015.53 1016.06 1016.61 1016.84 1016.81
1009.41 1009.26 1008.85 1009.14 1009.34 1009.02 1006.17 1004.26 1003.80 1003.40 1003.12 1003.32 1003.29 1003.69 1004.35 1005.35 1006.25 1006.98 1007.53 1007.75 1008.56 1008.96 1009.46 1009.63 1009.93 1010.35 1010.77 1011.07 1011.50 1011.75 1011.97 1012.13 1012.62 1013.12 1013.54 1013.74 1014.07 1014.78 1015.36 1015.52 1015.62 1015.59 1015.72 1015.88 1015.96 1015.89 1015.91 1016.17 1016.35
1007.07 1007.84 1008.87 1009.08 1008.66 1007.73 1004.97 1004.49 1003.24 1003.09 1002.90 1002.90 1002.96 1003.80 1004.78 1005.58 1006.31 1006.87 1007.55 1008.10 1008.62 1009.30 1009.95 1010.13 1010.48 1010.85 1011.25 1011.64 1011.98 1012.26 1012.55 1013.01 1013.36 1013.66 1013.96 1014.31 1014.57 1014.73 1014.82 1015.32 1015.58 1015.73 1015.85 1015.89 1015.96 1015.93 1015.98 1016.44 1017.05
1007.04 1007.02 1007.44 1007.53 1007.44 1006.35 1005.22 1002.99 1002.35 1002.23 1002.33 1002.85 1003.10 1003.94 1004.77 1005.54 1006.20 1006.77 1007.62 1008.40 1008.91 1009.50 1009.92 1010.64 1011.16 1011.62 1012.15 1012.48 1012.85 1013.00 1013.23 1013.50 1013.88 1014.23 1014.49 1014.75 1015.01 1015.14 1015.33 1015.51 1016.03 1016.10 1015.81 1015.81 1015.92 1015.74 1015.92 1016.29 1016.51
1005.00 1004.56 1005.38 1005.97 1006.85 1006.37 1005.10 1002.07 1002.40 1002.35 1002.61 1003.22 1003.55 1004.41 1005.10 1005.91 1006.81 1007.12 1007.79 1008.43 1009.10 1009.75 1010.22 1010.86 1011.43 1011.98 1012.52 1012.81 1013.04 1013.26 1013.56 1013.85 1014.14 1014.30 1014.61 1014.94 1014.83 1014.91 1015.25 1015.43 1015.53 1016.15 1016.34 1016.11 1015.95 1016.13 1016.19 1016.13 1016.31
Wind_Speed
2 3 1 0 2 1 3 2 1 2 2 2 3 1 5 3 1 5 4 12 12 19 17 18 15 14 14 16 16 16 16 16 16 17 17 16 16 15 13 14 14 16 17 17 17 16 16 16 14
3 2 2 2 2 3 3 2 0 1 2 5 5 3 3 4 1 3 7 8 13 17 16 17 15 16 15 15 16 16 17 17 16 16 16 16 15 15 13 12 14 16 17 18 18 18 17 14 12
2 3 1 3 2 3 3 1 4 2 3 2 4 3 1 2 2 6 1 13 14 16 16 16 17 17 17 15 15 16 16 15 15 16 16 16 15 15 14 12 13 16 17 18 18 18 17 13 11
2 1 3 2 3 1 1 4 5 4 2 2 4 6 1 2 1 1 12 14 15 15 16 17 16 17 18 17 16 16 16 15 14 15 15 15 15 14 13 11 12 15 17 18 18 17 14 13 13
3 2 3 3 1 3 3 5 4 2 1 2 1 5 3 2 5 6 13 13 15 15 14 17 15 16 17 18 17 17 17 16 16 15 15 15 14 14 12 10 10 12 15 15 16 15 14 11 11
2 1 2 0 1 3 5 4 2 0 2 2 2 4 3 3 3 7 9 10 11 15 14 14 14 14 15 16 16 16 16 17 16 15 15 14 13 12 11 10 10 10 12 13 13 12 11 10 9
3 2 2 1 1 3 2 6 4 2 2 2 4 3 1 4 4 9 9 8 9 12 13 13 13 13 11 13 13 13 14 15 15 14 13 12 12 11 11 11 10 11 11 11 11 10 10 9 7
4 3 3 3 2 2 3 2 1 5 4 2 2 2 2 3 9 10 8 7 9 10 11 12 12 12 12 13 12 14 13 13 14 14 13 11 11 11 11 10 10 10 10 11 10 10 10 9 8
2 3 3 3 6 1 2 7 0 3 2 2 2 2 2 7 10 9 8 7 8 9 11 11 12 13 11 11 11 12 12 13 11 12 12 12 9 10 11 7 10 10 9 10 10 10 9 8 7
2 3 7 2 3 1 3 3 7 1 5 2 3 3 2 8 8 11 11 12 12 14 13 12 13 13 12 10 11 12 11 11 11 12 13 10 10 9 8 8 8 9 9 9 10 9 9 7 4
3 4 3 1 3 3 2 4 2 2 1 6 2 2 3 7 10 11 13 13 15 13 12 15 14 13 14 12 10 7 7 8 9 13 12 10 9 9 8 7 7 7 9 6 8 8 5 5 4
3 3 3 0 2 3 6 6 4 6 9 5 5 3 4 10 13 16 15 15 12 16 17 16 16 15 15 9 10 9 9 9 8 10 13 9 7 9 9 7 8 8 6 7 6 4 4 4 4
3 2 2 3 7 7 4 12 6 14 11 11 10 8 11 12 16 14 15 13 11 15 16 18 16 15 14 12 9 11 11 10 11 10 12 10 10 9 9 7 7 6 6 6 6 5 5 4 4
1 3 6 6 10 6 6 7 2 13 1 8 5 8 8 10 13 12 14 16 14 14 15 15 17 16 15 13 13 10 9 11 11 11 10 12 10 9 9 8 7 6 5 6 6 6 5 5 4
1 5 7 7 3 7 6 6 10 16 5 7 4 3 6 9 8 13 15 16 17 16 14 18 18 18 17 17 14 11 10 8 11 11 13 12 11 9 10 7 8 7 7 9 7 5 4 4 4
1 2 4 1 4 2 7 9 8 5 2 8 10 7 7 10 9 10 11 14 15 15 18 17 15 18 18 16 12 11 11 11 11 10 10 11 10 11 11 9 9 9 7 8 7 7 6 5 5
4 4 4 7 1 2 6 7 3 2 7 11 12 11 10 12 15 10 10 12 13 13 15 17 18 19 18 16 11 12 13 11 10 10 9 9 9 11 11 9 9 9 7 7 7 6 6 6 4
6 5 5 7 1 2 4 14 16 9 10 14 18 16 13 14 19 11 8 7 9 10 14 15 15 17 17 12 10 8 9 9 9 8 7 10 8 9 11 9 9 9 8 7 7 8 7 4 6
5 3 6 5 4 7 15 17 14 15 15 22 20 16 13 15 18 10 7 4 8 11 12 16 16 16 14 12 11 9 11 7 8 7 9 9 8 9 12 9 9 9 9 10 9 7 8 2 6
7 8 11 14 11 6 10 16 18 19 22 19 21 18 16 15 13 12 7 5 6 9 9 13 14 15 13 10 10 6 7 5 5 5 7 11 13 12 11 11 9 10 8 9 9 8 3 3 8
9 11 8 11 9 8 10 16 8 7 14 15 16 16 14 11 13 11 5 6 6 6 5 12 13 14 13 13 8 6 7 4 3 6 6 7 10 10 11 11 9 10 9 8 9 9 10 6 7
10 12 10 9 5 8 3 12 10 7 12 12 17 12 10 8 5 3 2 4 6 6 3 9 12 14 12 14 11 13 8 7 5 4 4 4 4 4 5 6 8 8 6 8 8 8 7 6 7
7 6 10 4 6 4 5 9 3 1 7 14 14 13 6 5 6 5 2 3 3 3 4 7 11 12 12 12 11 8 7 5 4 4 7 4 4 4 3 2 3 4 3 5 5 4 6 7 5
9 7 4 3 2 10 13 12 12 8 13 6 12 8 7 8 8 6 3 4 3 3 5 7 9 7 10 10 11 11 10 7 6 5 5 4 2 2 3 2 2 3 4 4 4 5 8 8 7
10 9 3 4 5 12 6 15 17 6 8 11 10 9 8 9 9 9 8 6 5 5 5 6 9 8 8 8 8 8 9 9 8 7 4 5 4 3 4 4 4 4 5 4 5 7 8 9 9
18 11 7 8 6 7 4 12 6 18 16 13 8 8 5 11 10 9 8 7 7 5 6 7 8 7 7 7 6 5 6 4 4 6 6 3 2 2 5 6 6 5 6 6 7 7 6 6 7
8 13 7 5 3 7 9 13 10 8 11 7 12 9 9 11 10 9 6 7 7 7 5 7 8 8 7 7 5 6 6 6 5 5 4 3 4 1 1 3 4 3 5 5 6 3 6 7 4
9 12 5 3 7 9 8 9 11 5 13 13 12 8 7 12 12 10 8 8 7 8 7 8 7 8 8 7 6 5 6 6 6 4 4 3 2 1 3 3 5 5 4 4 5 5 5 5 2
9 9 5 6 6 6 5 9 6 12 12 10 12 8 11 14 13 11 9 8 8 8 9 9 8 8 7 7 6 7 6 6 5 4 3 3 1 2 3 3 4 5 5 5 6 7 6 6 5
20 17 13 8 8 6 6 14 4 4 5 7 9 7 11 11 8 8 9 10 10 9 9 9 9 8 7 6 7 6 6 5 5 5 4 4 3 3 4 5 6 5 4 5 6 5 4 6 8
Wind_Direction
162 140 163 49 223 33 77 105 283 273 223 291 97 118 85 50 92 81 3 160 142 147 155 158 152 146 138 131 129 127 126 126 129 129 128 128 129 127 127 129 126 123 120 118 116 112 111 112 107
145 164 77 93 79 91 97 262 148 183 171 134 100 97 72 72 83 107 117 170 154 148 154 158 156 149 144 139 135 131 132 134 133 131 130 130 131 130 134 134 131 126 122 123 120 117 112 106 100
111 28 37 73 102 118 114 253 343 289 204 199 118 47 114 101 116 162 116 153 150 155 157 158 155 152 149 147 143 139 138 136 135 132 133 134 138 140 137 138 133 129 127 127 123 120 117 107 104
30 60 88 68 96 160 269 328 312 295 155 148 127 104 151 7 48 278 144 146 155 160 163 154 153 155 154 152 150 147 143 141 139 139 141 142 143 143 139 138 140 135 128 127 127 126 122 126 129
40 72 58 81 322 285 267 287 309 284 55 95 229 133 136 91 78 118 149 152 160 166 168 161 155 158 156 155 155 152 149 146 147 147 148 148 147 144 140 137 134 130 127 129 130 132 133 133 137
75 24 50 132 257 277 283 284 266 217 25 104 111 123 113 64 143 129 149 158 165 166 167 161 161 163 160 160 158 154 153 152 150 149 148 149 145 145 141 137 132 130 129 132 131 132 132 135 141
111 92 154 224 282 296 335 330 33 23 113 11 149 118 113 193 124 133 138 151 160 165 165 167 174 175 167 162 157 157 158 156 154 151 148 147 145 147 145 145 142 137 133 131 131 132 131 129 129
108 98 149 216 194 227 351 21 321 28 69 1 303 164 137 159 140 125 130 151 160 167 169 172 176 185 184 178 167 164 162 162 158 153 149 147 150 154 153 150 146 142 140 139 142 140 136 139 149
138 102 187 227 170 176 18 2 287 344 315 313 217 157 355 120 138 133 142 163 166 177 182 177 179 188 187 190 184 168 165 162 159 152 149 150 168 169 165 154 152 151 152 150 148 144 144 144 149
120 177 210 212 195 245 317 306 308 136 353 301 310 98 86 158 178 180 188 190 190 189 190 188 185 184 188 192 188 188 181 181 179 178 175 171 169 173 177 167 165 161 160 164 154 153 144 168 167
156 210 203 211 232 281 267 267 255 77 238 230 226 229 188 190 204 215 215 208 203 196 189 194 187 186 189 192 187 186 188 185 186 183 179 178 171 173 181 174 179 180 179 178 178 163 189 177 174
233 232 197 326 156 306 295 297 271 190 232 235 208 212 186 211 218 219 224 216 196 194 198 194 191 188 192 189 191 187 186 187 188 189 185 181 179 182 184 188 185 188 188 181 189 186 173 188 183
204 278 185 293 299 275 285 262 281 274 258 262 280 256 241 237 242 236 237 243 211 206 200 198 192 192 188 192 186 193 194 190 188 186 193 192 190 191 186 188 187 197 188 198 187 187 182 192 203
189 281 273 263 255 243 234 260 257 262 295 281 272 265 254 245 246 241 237 238 230 220 208 198 199 194 191 193 192 194 193 190 191 190 192 194 198 196 193 187 192 179 198 201 215 194 187 191 183
150 303 309 225 250 237 212 245 224 254 294 278 281 236 254 263 269 233 238 236 232 228 209 202 198 194 194 195 194 192 188 188 195 194 193 191 206 202 197 189 191 200 197 205 202 209 199 193 180
356 107 305 313 170 341 204 264 252 273 260 312 295 276 257 268 245 246 247 242 238 232 214 201 195 192 196 195 190 192 190 190 200 195 193 186 197 198 194 193 197 193 191 205 202 202 204 204 191
11 262 246 303 212 146 220 279 294 116 313 304 301 284 277 283 283 251 232 246 247 236 223 209 194 192 192 191 188 194 193 193 197 192 195 189 192 205 206 204 203 189 196 201 205 202 211 204 183
184 224 231 251 68 118 237 262 277 278 292 289 292 291 283 281 274 281 229 246 264 260 236 212 195 189 184 179 181 187 190 195 195 191 190 191 189 201 206 210 204 196 201 203 200 203 208 199 200
132 195 269 265 219 314 268 265 265 281 281 283 279 272 268 264 279 286 295 294 273 255 228 215 197 185 172 178 175 186 194 187 200 195 188 193 193 198 207 210 208 205 212 211 205 197 193 147 145
207 236 259 288 282 200 276 266 265 258 259 256 263 271 265 270 283 286 308 325 309 287 246 206 193 178 183 177 179 180 177 188 185 180 192 198 202 202 209 207 204 207 213 218 195 185 154 135 176
220 217 227 255 315 262 292 276 254 248 249 257 255 254 263 266 284 306 327 2 348 328 237 191 171 169 175 169 140 111 127 113 142 185 188 193 202 200 208 214 212 211 209 211 208 201 189 187 195
237 211 221 233 274 272 356 295 278 247 250 266 276 254 255 272 271 260 7 18 2 360 115 146 153 164 162 154 161 162 173 173 185 163 146 165 171 174 208 218 211 216 207 216 206 197 199 171 190
217 171 192 184 208 309 232 273 207 204 244 250 250 248 226 221 213 193 112 64 19 27 97 124 139 148 146 157 167 164 169 164 144 143 156 144 147 141 143 191 206 203 194 213 202 175 200 194 187
146 125 105 82 159 258 207 219 279 211 234 240 254 256 207 187 188 179 145 113 93 94 109 112 120 121 149 163 169 172 163 159 145 142 155 156 164 153 174 166 181 205 205 195 197 194 205 209 207
166 140 190 218 192 250 183 213 261 256 243 231 230 235 199 185 185 186 174 149 137 129 116 115 131 132 139 149 158 169 166 170 169 160 155 165 165 192 186 168 177 190 213 206 198 211 209 198 199
191 179 182 204 204 278 138 237 246 226 232 235 239 250 207 189 194 193 184 152 144 129 127 119 120 113 115 114 115 122 139 142 138 151 153 166 195 200 176 181 197 199 213 202 203 214 228 217 210
178 217 216 274 214 273 248 267 265 239 236 224 235 230 214 190 188 195 181 149 141 130 97 103 100 91 86 91 91 81 78 80 83 78 84 109 126 108 270 238 231 221 233 227 227 214 199 201 183
197 138 162 212 214 232 239 262 240 209 220 227 237 227 196 184 185 185 178 147 116 116 113 82 86 93 90 87 94 95 94 90 91 90 82 68 60 127 178 209 229 234 231 216 205 201 187 176 167
172 192 200 165 191 217 280 260 211 219 204 219 240 211 192 184 186 182 161 139 121 123 118 109 101 97 91 94 83 86 85 87 87 91 102 106 142 209 245 247 248 227 204 197 206 202 179 179 173
213 204 175 188 189 234 253 266 150 117 158 197 245 201 176 178 174 162 158 148 141 125 119 113 111 105 100 101 105 108 114 121 119 114 121 173 193 189 201 209 212 219 221 210 207 191 176 173 178